www.pogodaiklimat.ru

Погода и климат >> Архив погоды >> Беларусь >> Полесская


ПОГОДА в Полесской

  • Прогноз погоды в Полесской
  • Монитор погоды в Полесской

АРХИВ ПОГОДЫ в Полесской

Время (UTC), дата Ветер
(напр.,м/с)
 
Видим.   Явления Облачность Т
(С)
Тd
(С)
f
(%)
Тe
(С)
Тes
(С)
Комфортность P
(гПа)
Po
(гПа)
Тmin
(С)
Tmax
(С)
R
(мм)
R24
(мм)
S
(см)
18 16.08 СЗ 1 10 км 10/6 600 м
[Sc Ci fib]
+16.3 +11.9 75 +17 +17 1016.0 1001.3 +23.4
21 16.08 штиль 0 5000 м дымка 6/4 600 м
[Sc Ci fib]
+12.1 +10.7 91 +11 +11 1017.0 1002.0
00 17.08 СЗ 1 5000 м дымка 9/9 600 м
[Sc]
+12.3 +11.5 95 +12 +12 1017.0 1002.1
03 17.08 СЗ 1 3200 м дымка 6/0 600 м
[Ci fib]
+9.5 +8.9 96 +9 +9 1017.0 1001.9 +9.5
06 17.08 СЗ 1 10 км 10/0
[Ci fib]
+15.5 +13.3 87 +16 +16 1017.0 1002.2 +9.5
09 17.08 СЗ 3 10 км 10/5 600 м
[Cu hum Ci fib]
+21.5 +9.7 47 +23 +23 комфорт 1016.0 1001.5
12 17.08 СЗ 4 10 км 10/6 600 м
[Cu hum Ci fib]
+23.0 +7.1 36 +24 +24 комфорт 1015.0 1000.6
15 17.08 СЗ 3 10 км 10/4 600 м
[Cu hum Ci fib]
+23.4 +7.1 35 +24 +24 комфорт 1014.0 999.6
18 17.08 штиль 0 10 км 10/1 600 м
[Sc Ci fib]
+19.0 +11.5 62 +20 +20 1015.0 1000.4 +24.1
21 17.08 штиль 0 5000 м дымка 8/0
[Ci fib]
+11.9 +10.6 92 +11 +11 1015.0 1000.1
00 18.08 штиль 0 4600 м дымка 8/0
[Ci fib]
+9.7 +8.9 95 +9 +9 1015.0 999.9
03 18.08 штиль 0 3400 м дымка 10/0
[Ci fib]
+7.3 +6.9 97 +6 +6 1015.0 999.8 +7.3
06 18.08 З 1 10 км 10/0
[Ci fib]
+15.2 +12.9 86 +16 +16 1014.0 999.3 +6.9
09 18.08 Ю 2 10 км 8/0
[Ci fib]
+23.1 +11.8 49 +26 +26 жарко 1014.0 999.6
12 18.08 З 3 15 км 10/6 600 м
[Cu hum Ci fib]
+25.1 +11.3 42 +26 +26 жарко 1013.0 998.8
15 18.08 Ю 3 15 км 10/4 600 м
[Cu hum Ci fib]
+26.0 +12.4 43 +28 +28 жарко 1013.0 998.8
18 18.08 ЮВ 2 10 км 8/0
[Ci fib]
+20.9 +15.4 71 +25 +25 комфорт 1014.0 999.6 +26.6
21 18.08 В 2 10 км 6/0
[Ci fib]
+15.9 +13.6 86 +16 +16 1015.0 1000.3
00 19.08 ЮВ 1 10 км 3/0
[Ci fib]
+14.5 +12.5 88 +15 +15 1015.0 1000.2
03 19.08 В 2 10 км 4/3 600 м
[Sc Ci fib]
+14.3 +12.3 88 +14 +14 1015.0 1000.2 +13.8
06 19.08 Ю 2 10 км 8/0
[Ci fib]
+18.9 +15.2 79 +21 +21 комфорт 1016.0 1001.4 +13.5
09 19.08 Ю 3 10 км 10/0
[Ci]
+26.4 +16.9 56 +30 +30 душно 1016.0 1001.8
12 19.08 Ю 2 10 км 10/0
[Ci]
+29.2 +16.7 47 +33 +33 очень
душно
1016.0 1001.9
15 19.08 Ю 2 10 км 8/0
[Ci]
+29.8 +17.3 47 +34 +34 очень
душно
1016.0 1002.0
18 19.08 ЮВ 2 10 км 8/3 600 м
[Sc Ci]
+24.0 +18.6 72 +29 +29 душно 1017.0 1002.7 +29.9
21 19.08 ЮВ 1 10 км 10/0
[Ci]
+20.3 +16.9 81 +24 +24 комфорт 1018.0 1003.5
00 20.08 ЮВ 1 10 км 10/0
[Ci]
+19.6 +16.8 84 +23 +23 комфорт 1018.0 1003.4
03 20.08 СВ 3 10 км 10/8 600 м
[Sc Ci]
+19.7 +16.7 83 +22 +22 комфорт 1019.0 1004.4 +17.0
06 20.08 СВ 3 10 км в посл. час гроза {ливн. осадки} 10/8 600 м
[Cb cap Ci]
+20.9 +17.9 83 +25 +25 комфорт 1021.0 1006.5 +17.0 0.0
09 20.08 В 4 10 км в посл. час ливневой дождь 10/6 600 м
[Sc Ac trans Ci fib]
+24.6 +19.6 74 +30 +30 очень
душно
1020.0 1005.7
12 20.08 СВ 2 10 км {ливн. осадки} 10/6 600 м
[Sc Ac trans Ci fib]
+28.8 +19.5 57 +35 +37 очень
душно
1020.0 1004.8
15 20.08 СЗ 3 10 км гроза без осадков 10/6 600 м
[Cb cap Ac trans Ci fib]
+28.7 +19.6 58 +35 +35 очень
душно
1020.0 1005.9
18 20.08 С 1 10 км {гроза} 10/6 600 м
[Sc Ci fib]
+22.0 +18.2 79 +27 +27 душно 1022.0 1007.5 +30.3 0.0
21 20.08 С 1 5000 м дымка 10/6 600 м
[Sc Ci fib]
+18.8 +17.8 94 +21 +21 комфорт 1022.0 1007.4
00 21.08 СВ 1 2300 м дымка 6/0
[Ci fib]
+17.9 +17.4 97 +19 +19 1022.0 1007.3
03 21.08 В 2 1800 м дымка 10/0
[Ci fib]
+18.1 +17.6 97 +19 +19 1021.0 1006.3 +17.5
06 21.08 ЮВ 4 10 км 10/0
[Ac trans Ci fib]
+22.1 +16.6 71 +26 +26 душно 1020.0 1005.5 +17.5
09 21.08 ЮВ 4 10 км 10/1 600 м
[Sc Ci fib]
+28.5 +16.1 47 +32 +32 душно 1020.0 1005.8
12 21.08 Ю 5
{11}
10 км 10/1 600 м
[Sc Ci fib]
+31.9 +13.6 33 +33 +33 жарко 1018.0 1004.0
15 21.08 СЗ 6
{11}
10 км 10/3 600 м
[Sc Ci fib]
+27.9 +20.7 65 +35 +35 очень
душно
1019.0 1004.9
18 21.08 СЗ 6
{11}
10 км 10/9 600 м
[Sc Ci fib]
+17.5 +14.6 83 +17 +17 1023.0 1008.3 +32.2
21 21.08 СЗ 5
{10}
10 км 10/9 600 м
[Sc Ci fib]
+15.4 +12.5 83 +14 +14 1025.0 1010.1
00 22.08 СЗ 4 10 км 10/6 600 м
[Sc Ci fib]
+14.7 +12.0 84 +13 +13 1026.0 1011.1
03 22.08 СЗ 3 10 км 10/3 600 м
[Sc Ci fib]
+11.8 +10.4 91 +10 +10 1027.0 1011.9 +11.8
06 22.08 СЗ 4 10 км 10/3 600 м
[Sc Ci fib]
+15.4 +12.7 84 +14 +14 1028.0 1013.1 +11.6
09 22.08 С 5 10 км 6/3 600 м
[Cu hum Ci fib]
+20.3 +9.8 51 +22 +24 комфорт 1029.0 1014.3
12 22.08 СВ 5 15 км 10/1 600 м
[Cu hum Cs]
+22.7 +8.4 40 +24 +24 комфорт 1028.0 1013.4
15 22.08 С 4 10 км 10/0
[Cs]
+21.9 +10.4 48 +24 +24 комфорт 1028.0 1013.4
18 22.08 СЗ 3 10 км 10 баллов +16.3 +11.9 75 +16 +16 1028.0 1013.1 +23.5
21 22.08 С 2 10 км 10 баллов +13.1 +10.6 85 +12 +12 1029.0 1013.9
00 23.08 С 1 10 км 10 баллов +11.5 +9.9 90 +11 +11 1030.0 1014.8
03 23.08 С 2 10 км 10 баллов +11.1 +9.8 92 +10 +10 1030.0 1014.8 +11.0
06 23.08 СВ 3 10 км 6 баллов +14.5 +11.8 84 +14 +15 1030.0 1015.0 +10.0
09 23.08 СВ 2 10 км 10 баллов +21.0 +10.2 50 +23 +23 комфорт 1030.0 1015.3
12 23.08 СВ 1 10 км 6 баллов +23.0 +10.4 45 +25 +30 комфорт 1029.0 1014.4
15 23.08 СВ 2 10 км 6 баллов +23.0 +10.4 45 +25 +26 комфорт 1028.0 1013.4

 

Местоположение метеостанции Полесская (Брестская область, Беларусь): широта 52.30 долгота 26.70 высота над уровнем моря 124 м.

В архиве по умолчанию представлена погода в Полесской за последнюю неделю. Архивные данные за месяц целиком и за предыдущие месяцы, начиная с января 2011 года, Вы можете получить, выбрав интересующий диапазон дат из раскрывающегося списка и нажав кнопку "Ввод!".


*Определитесь, кто Вы:
робот инопланетянин человек

Внимание! Время в таблицах - всемирное. Для получения местного времени необходимо прибавить поправку, которая равна 3 ч.

Смотрите также архив погоды в соседних городах и на ближайших метеорологических станциях:

Погода в Пинске (Брестская область, Беларусь) (48 км)
Погода в Ганцевичах (Брестская область, Беларусь) (53 км)
Погода в Житковичах (Гомельская область, Беларусь) (80 км)
Погода в Слуцке (Минская область, Беларусь) (99 км)
Погода в Ивацевичах (Брестская область, Беларусь) (101 км)
Погода в Барановичах (Брестская область, Беларусь) (105 км)
Погода в Дрогичине (Брестская область, Беларусь) (110 км)
Погода в Сарнах (Ровенская область, Украина) (114 км)
Погода в Любешове (Волынская область, Украина) (120 км)
Погода в Столбцах (Минская область, Беларусь) (131 км)

Пояснения к столбцам:

Ветер - указаны скорость ветра в м/с - средняя за 10 мин, порывы в срок и между сроками (в фигурных скобках) и направление, откуда дует ветер: С - северный, СВ - северо-восточный, В - восточный, ЮВ - юго-восточный, Ю - южный, ЮЗ - юго-западный, З - западный, СЗ - северо-западный.
Видимость - горизонтальная дальность видимости в метрах или километрах. При видимости от 1 до 10 км при отсутствии осадков обычно наблюдается дымка, при ухудшении видимости до 1 км и менее - туман. В сухую погоду видимость может ухудшаться дымом, пылью или мглою.
Явления - указаны атмосферные явления, наблюдавшиеся в срок или в последний час перед сроком; фигурными скобками обозначены явления, наблюдавшиеся между сроками (за 1-3 часа до срока); квадратными скобками обозначены град или гололедные отложения с указанием их диаметра в мм.
Облачность - указаны через наклонную черту общая и нижняя облачность в баллах и высота нижней границы облаков в метрах; квадратными скобками обозначены формы облаков: Ci - перистые, Cs - перисто-слоистые, Cc - перисто-кучевые, Ac - высококучевые, As - высокослоистые, Sc - слоисто-кучевые, Ns - слоисто-дождевые, Cu - кучевые, Cb - кучево-дождевые. Подробнее классификацию облаков см. в Атласе облаков (PDF).
T - Температура воздуха - температура, измеренная на высоте 2 м над землей.
Td - Температура точки росы - температура, при понижении до которой содержащийся в воздухе водяной пар достигнет насыщения.
f - Относительная влажность воздуха - влажноcть воздуха, измеренная на высоте 2 м над землей.
Te - Эффективная температура - температура, которую ощущает одетый по сезону человек в тени. Характеристика душности погоды. При расчете учитывается влияние влажности воздуха и скорости ветра на теплоощущения человека.
Tes - Эффективная температура на солнце - температура, которую ощущает человек, с поправкой на солнечный нагрев. Характеристика знойности погоды. Зависит от высоты солнца над горизонтом, облачности и скорости ветра. Ночью, в пасмурную погоду, а также при ветре 12 м/с и более поправка равна нулю.
P - Атмосферное давление - приведенное к уровню моря атмосферное давление.
Po - Атмосферное давление - измеренное на уровне метеостанции атмосферное давление.
Tmin - Минимальная температура - минимум температуры воздуха на высоте 2 м над землей.
Tmax - Максимальная температура - максимум температуры воздуха на высоте 2 м над землей.
R - Количество осадков - Количество выпавших осадков за период времени, мм. При наведении курсора мыши на число - период времени, за который выпало указанное количество осадков.
R24 - Количество осадков - Количество выпавших осадков за 24 часа, мм.
S - Снежный покров - Высота снежного покрова, см. При наведении курсора мыши на число - состояние снежного покрова и степень покрытия местности в баллах.